User: anonymous   Login
Location: Six Mile Lake
(44.9000°N, 79.7170°W)
Time: 06:52:50
(UTC-04:00)
Language:

M-CUBED/EXP-1 PRIME - Orbit

View from above orbital plane
View from above orbital plane
View from above satellite
View from above satellite

Ground track
Ground track

The orbit data is extracted from the following two-line orbital elements,

1 37855U 11061F   22180.87461678  .00003971  00000-0  17813-3 0  9990
2 37855 101.7114 306.5225 0152541  25.1705 335.6846 15.12589980583588
Epoch (UTC): 29 June 2022 20:59:26
Eccentricity: 0.0152541
inclination: 101.7114°
perigee height: 423 km
apogee height: 633 km
right ascension of ascending node: 306.5225°
argument of perigee: 25.1705°
revolutions per day: 15.12589980
mean anomaly at epoch: 335.6846°
orbit number at epoch: 58358

The dashed part of the orbit path shows where the satellite is in the earth's shadow,  

DLR